Satellite: AO-49
Catalog number: 27605
Epoch time:      05292.78334956
Element set:    0870
Inclination:      064.5561 deg
RA of node:       116.4914 deg
Eccentricity:    0.0071534
Arg of perigee:   214.3677 deg
Mean anomaly:     145.2757 deg
Mean motion:   14.72140235 rev/day
Decay rate:        1.5e-07 rev/day^2
Epoch rev:           15219
Checksum:              309

Satellite: SO-50
Catalog number: 27607
Epoch time:      05293.80744092
Element set:     847
Inclination:      064.5564 deg
RA of node:       119.6931 deg
Eccentricity:    0.0071531
Arg of perigee:   212.7950 deg
Mean anomaly:     146.8645 deg
Mean motion:   14.71041321 rev/day
Decay rate:       2.12e-06 rev/day^2
Epoch rev:           15221
Checksum:              286

Satellite: AO-51
Catalog number: 28375
Epoch time:      05293.71541750
Element set:     368
Inclination:      098.2021 deg
RA of node:       351.2100 deg
Eccentricity:    0.0083137
Arg of perigee:   211.6561 deg
Mean anomaly:     147.9615 deg
Mean motion:   14.40484393 rev/day
Decay rate:        3.9e-07 rev/day^2
Epoch rev:            6868
Checksum:              299

/EX
SB KEPS @ AMSAT  $ORB05293.W
Orbital Elements  05293.WEATHER

HR AMSAT ORBITAL ELEMENTS FOR WEATHER SATELLITES
FROM WA5QGD FORT WORTH,TX October 20, 2005
Send SUBSCRIBE KEPS/UNSUBSCRIBE KEPS to majordomo@amsat.org only
BID: ORB05293.W
TO ALL RADIO AMATEURS BT

Satellite: NOAA-10
Catalog number: 16969
Epoch time:      05293.25278262
Element set:     932
Inclination:      098.7657 deg
RA of node:       299.3328 deg
Eccentricity:    0.0013212
Arg of perigee:   127.1394 deg
Mean anomaly:     233.0990 deg
Mean motion:   14.27273559 rev/day
Decay rate:       1.29e-06 rev/day^2
Epoch rev:           99293
Checksum:              338

Satellite: NOAA-11
Catalog number: 19531
Epoch time:      05292.69559878
Element set:     815
Inclination:      098.8423 deg
RA of node:       018.5928 deg
Eccentricity:    0.0010969
Arg of perigee:   317.0872 deg
Mean anomaly:     042.9449 deg
Mean motion:   14.14773053 rev/day
Decay rate:       -4.1e-07 rev/day^2
Epoch rev:           88053
Checksum:              338

Satellite: NOAA-12
Catalog number: 21263
Epoch time:      05293.19129032
Element set:     300
Inclination:      098.7122 deg
RA of node:       282.7318 deg
Eccentricity:    0.0013660
Arg of perigee:   067.3356 deg
Mean anomaly:     292.9261 deg
Mean motion:   14.25471790 rev/day
Decay rate:       -1.8e-07 rev/day^2
Epoch rev:           75005
Checksum:              281

Satellite: MET-3/5
Catalog number: 21655
Epoch time:      05292.76902330
Element set:    0946
Inclination:      082.5535 deg
RA of node:       070.6455 deg
Eccentricity:    0.0012231
Arg of perigee:   284.4578 deg
Mean anomaly:     075.5147 deg
Mean motion:   13.17002203 rev/day
Decay rate:        5.1e-07 rev/day^2
Epoch rev:           68171
Checksum:              284

Satellite: MET-2/21
Catalog number: 22782
Epoch time:      05293.16059332
Element set:     330
Inclination:      082.5488 deg
RA of node:       161.8665 deg
Eccentricity:    0.0023446
Arg of perigee:   130.6017 deg
Mean anomaly:     229.7226 deg
Mean motion:   13.83597418 rev/day
Decay rate:        7.9e-07 rev/day^2
Epoch rev:           61285
Checksum:              313

Satellite: OKEAN-4
Catalog number: 23317
Epoch time:      05292.83687381
Element set:     762
Inclination:      082.5382 deg
RA of node:       141.1738 deg
Eccentricity:    0.0024022
Arg of perigee:   086.1616 deg
Mean anomaly:     274.2312 deg
Mean motion:   14.82245414 rev/day
Decay rate:       2.86e-06 rev/day^2
Epoch rev:           59437
Checksum:              298

Satellite: NOAA-14
Catalog number: 23455
Epoch time:      05293.28839168
Element set:     824
Inclination:      099.0753 deg
RA of node:       343.5752 deg
Eccentricity:    0.0009326
Arg of perigee:   012.9570 deg
Mean anomaly:     347.1890 deg
Mean motion:   14.13604353 rev/day
Decay rate:        3.6e-07 rev/day^2
Epoch rev:           55717
Checksum:              315

Satellite: SICH-1
Catalog number: 23657
Epoch time:      05292.73670255
Element set:    0570
Inclination:      082.5253 deg
RA of node:       282.1052 deg
Eccentricity:    0.0025806
Arg of perigee:   074.4387 deg
Mean anomaly:     285.9673 deg
Mean motion:   14.81248183 rev/day
Decay rate:       3.01e-06 rev/day^2
Epoch rev:           54639
Checksum:              309

Satellite: NOAA-15
Catalog number: 25338
Epoch time:      05293.16476554
Element set:     235
Inclination:      098.5157 deg
RA of node:       297.7122 deg
Eccentricity:    0.0010739
Arg of perigee:   000.1810 deg
Mean anomaly:     359.9372 deg
Mean motion:   14.24543953 rev/day
Decay rate:        4.0e-07 rev/day^2
Epoch rev:           38654
Checksum:              308

Satellite: RESURS
Catalog number: 25394
Epoch time:      05293.69769047
Element set:     209
Inclination:      098.5265 deg
RA of node:       359.2608 deg
Eccentricity:    0.0001985
Arg of perigee:   128.1745 deg
Mean anomaly:     231.9611 deg
Mean motion:   14.24083026 rev/day
Decay rate:       -1.0e-08 rev/day^2
Epoch rev:           37831
Checksum:              308

Satellite: FENGYUN1
Catalog number: 25730
Epoch time:      05292.58586856
Element set:    0554
Inclination:      098.6141 deg
RA of node:       289.4368 deg
Eccentricity:    0.0015282
Arg of perigee:   104.8229 deg
Mean anomaly:     255.4629 deg
Mean motion:   14.11800281 rev/day
Decay rate:      -2.61e-06 rev/day^2
Epoch rev:           33206
Checksum:              306

